Flag for U.S.A. Weather past 2 weeks in Spartanburg, South Carolina, U.S.A.

63 °F


Feels Like: 63 °F
Forecast: 54 / 73 °F
Wind: 8 mph from Northeast

Location: Spartanburg Memorial

Current Time: Oct 6, 2015 at 10:56:35 AM

Latest Report: Oct 6, 2015 at 10:35 AM

Visibility: 10 mi

Pressure: 30.09 "Hg

Humidity: 59%

Dew point: 48 °F

Location of SpartanburgLocation

Historic Weather in Spartanburg — Graph


Spartanburg temperature yesterday

Maximum temperature yesterday: 72 °F (at 1:55 PM)
Minimum temperature yesterday: 57 °F (at 4:55 AM)
Average temperature yesterday: 63 °F

Past Weeks' High & Low Weather Summary

High84 °F (Sep 30, 3:15 PM)100% (Sep 26, 9:15 PM)30.21 "Hg (Sep 26, 9:15 PM)
Low52 °F (Oct 3, 2:35 AM)27% (Sep 24, 1:55 PM)29.71 "Hg (Oct 3, 3:15 PM)
Average65 °F83%29.99 "Hg
* Reported Sep 21 9:15 AM — Oct 6 9:55 AM, Spartanburg, Weather by CustomWeather, © 2015

Note: Actual official high and low records may vary slightly from our data, if they occured in-between our weather recording intervals... More about our weather records


Spartanburg weather history for previous 24 hours

Time TempWeatherWind HumidityBarometerVisibility
9:55 AM
Tue, Oct 6
61 °FSunny.8 mph63%30.09 "Hg10 mi
9:35 AM59 °FSunny.9 mph63%30.09 "Hg10 mi
9:15 AM57 °FSunny.10 mph72%30.09 "Hg10 mi
8:55 AM55 °FSunny.9 mph72%30.09 "Hg10 mi
8:35 AM55 °FSunny.8 mph72%30.09 "Hg10 mi
8:15 AM54 °FClear.7 mph77%30.09 "Hg10 mi
7:55 AM54 °FClear.7 mph77%30.08 "Hg10 mi
7:35 AM54 °FClear.6 mph77%30.08 "Hg10 mi
7:15 AM52 °FClear.7 mph82%30.08 "Hg10 mi
6:55 AM54 °FClear.7 mph77%30.07 "Hg10 mi
6:35 AM54 °FClear.7 mph77%30.07 "Hg10 mi
6:15 AM54 °FClear.7 mph77%30.07 "Hg10 mi
5:55 AM54 °FClear.5 mph77%30.06 "Hg10 mi
5:35 AM54 °FClear.7 mph77%30.05 "Hg10 mi
5:15 AM54 °FClear.6 mph82%30.05 "Hg10 mi
4:55 AM55 °FClear.7 mph77%30.05 "Hg10 mi
4:35 AM55 °FClear.8 mph77%30.05 "Hg10 mi
4:15 AM55 °FClear.8 mph77%30.05 "Hg10 mi
3:55 AM55 °FClear.9 mph82%30.04 "Hg10 mi
3:35 AM57 °FClear.12 mph77%30.04 "Hg10 mi
3:15 AM59 °FClear.8 mph72%30.04 "Hg10 mi
2:55 AM59 °FClear.9 mph77%30.04 "Hg10 mi
2:35 AM59 °FClear.9 mph77%30.04 "Hg10 mi
2:15 AM59 °FClear.9 mph82%30.04 "Hg10 mi
1:55 AM59 °FClear.7 mph82%30.04 "Hg10 mi
1:35 AM59 °FClear.7 mph82%30.04 "Hg10 mi
1:15 AM61 °FClear.7 mph77%30.04 "Hg10 mi
12:35 AM61 °FPassing clouds.6 mph77%30.04 "Hg10 mi
12:15 AM63 °FOvercast.3 mph73%30.04 "Hg10 mi
11:35 PM
Mon, Oct 5
63 °FOvercast.5 mph77%30.05 "Hg10 mi
10:55 PM63 °FOvercast.3 mph83%30.05 "Hg10 mi
10:35 PM61 °FOvercast.3 mph94%30.05 "Hg10 mi
10:15 PM61 °FMostly cloudy.No wind94%30.04 "Hg10 mi
9:55 PM61 °FMostly cloudy.8 mph94%30.04 "Hg10 mi
9:35 PM63 °FOvercast.5 mph88%30.03 "Hg10 mi
9:15 PM63 °FOvercast.3 mph88%30.04 "Hg10 mi
8:55 PM63 °FOvercast.3 mph88%30.04 "Hg10 mi
8:35 PM63 °FOvercast.No wind88%30.03 "Hg10 mi
8:15 PM63 °FMostly cloudy.No wind83%30.02 "Hg10 mi
7:55 PM63 °FMore clouds than sun.No wind83%30.02 "Hg10 mi
7:35 PM64 °FMore clouds than sun.6 mph78%30.01 "Hg10 mi
7:15 PM64 °FCloudy.7 mph73%30.00 "Hg10 mi
6:55 PM66 °FMostly cloudy.6 mph68%30.00 "Hg10 mi
5:15 PM70 °FCloudy.7 mph60%29.97 "Hg10 mi
4:55 PM70 °FMore clouds than sun.7 mph60%29.97 "Hg7 mi
4:35 PM70 °FOvercast.6 mph60%29.96 "Hg10 mi
4:15 PM70 °FOvercast.8 mph60%29.96 "Hg10 mi
3:55 PM70 °FMore clouds than sun.7 mph60%29.97 "Hg10 mi
3:35 PM70 °FMore clouds than sun.6 mph60%29.97 "Hg10 mi
3:15 PM70 °FPartly sunny.12 mph60%29.96 "Hg7 mi
2:55 PM72 °FScattered clouds.7 mph57%29.96 "Hg10 mi
2:35 PM72 °FSunny.12 mph57%29.97 "Hg10 mi
2:15 PM72 °FSunny.12 mph57%29.96 "Hg7 mi
1:55 PM72 °FScattered clouds.14 mph57%29.96 "Hg10 mi
1:35 PM70 °FSunny.15 mph60%29.97 "Hg7 mi
1:15 PM70 °FSunny.17 mph60%29.98 "Hg10 mi
12:55 PM70 °FScattered clouds.15 mph60%29.98 "Hg10 mi
12:35 PM68 °FScattered clouds.12 mph64%29.99 "Hg10 mi
12:15 PM66 °FBroken clouds.17 mph68%29.99 "Hg7 mi
11:55 AM64 °FBroken clouds.15 mph68%29.99 "Hg10 mi
11:35 AM64 °FMore clouds than sun.13 mph68%30.00 "Hg10 mi
11:15 AM64 °FBroken clouds.15 mph68%30.00 "Hg10 mi
10:55 AM64 °FBroken clouds.20 mph68%30.00 "Hg10 mi
10:35 AM63 °FBroken clouds.14 mph73%30.00 "Hg10 mi
10:15 AM63 °FMore clouds than sun.18 mph73%30.00 "Hg10 mi
Weather by CustomWeather, © 2015

See weather overviewHow to use our weather pages